STARLINK-35623 (66138 NORAD) Tracking and Keplerian Element Data

This shows tracking and keplerian element data for the satellite.

Feedback or suggestion? Click here.




ElementValue
Catalog66138
NameSTARLINK-35623
Epoch Orbit1039
Epoch Day354.16946879
Epoch Year2025
RAAN51.9614
Inclination53.1614
Eccentricity0.0001397
Argument of Perigee105.1107
Mean Anonmoly255.0052
Mean Motion15.39636917
Decay Rate0.00027192
L11 66138U 25237AA 25354.16946879 .00027192 00000+0 68697-3 0 9991
L22 66138 53.1614 51.9614 0001397 105.1107 255.0052 15.39636917 10399



Live tracking and technical data element details for STARLINK-35623 (NORAD 66138). STARLINK-35623 can be tracked NOW for your location showing map with azimuth and elevation plus other details from your city location.







IsCatalogInMostPopularTable: catalog: 66138, numindb: 7
Update: records affected: 1



GetName: 66138 STARLINK-35623

Hit Count: updated at: Mon, 20 Apr 2026 09:46:39 GMT